| time (UTC) | temp F | wind direction | speed MPH | gust MPH | rain 1hr in | rain 24hr in | rain mn in | humidity % | barometer mb |
| 20260507174607 | 54 | 45 | 6.0 | 15.0 | 0.00 | 0.00 | 0.00 | 71 | 1011.6 |
| 20260507174407 | 54 | 45 | 6.0 | 15.0 | 0.00 | 0.00 | 0.00 | 71 | 1011.5 |
| 20260507174207 | 54 | 45 | 6.0 | 15.0 | 0.00 | 0.00 | 0.00 | 70 | 1011.5 |
| 20260507173808 | 55 | 45 | 5.0 | 11.0 | 0.00 | 0.00 | 0.00 | 71 | 1011.5 |
| 20260507173609 | 55 | 45 | 5.0 | 11.0 | 0.00 | 0.00 | 0.00 | 70 | 1011.5 |
| 20260507173408 | 55 | 45 | 6.0 | 11.0 | 0.00 | 0.00 | 0.00 | 70 | 1011.5 |
| 20260507173208 | 55 | 46 | 6.0 | 11.0 | 0.00 | 0.00 | 0.00 | 70 | 1011.5 |
| 20260507173008 | 55 | 45 | 6.0 | 11.0 | 0.00 | 0.00 | 0.00 | 70 | 1011.5 |
| 20260507172808 | 55 | 46 | 6.0 | 11.0 | 0.00 | 0.00 | 0.00 | 70 | 1011.5 |
| 20260507172407 | 55 | 46 | 6.0 | 11.0 | 0.00 | 0.00 | 0.00 | 70 | 1011.6 |
| 20260507172207 | 55 | 45 | 6.0 | 14.0 | 0.00 | 0.00 | 0.00 | 70 | 1011.5 |
| 20260507172007 | 55 | 46 | 6.0 | 14.0 | 0.00 | 0.00 | 0.00 | 70 | 1011.5 |
| 20260507171807 | 55 | 46 | 6.0 | 14.0 | 0.00 | 0.00 | 0.00 | 70 | 1011.4 |
| 20260507171607 | 55 | 45 | 6.0 | 14.0 | 0.00 | 0.00 | 0.00 | 70 | 1011.4 |
| 20260507171407 | 55 | 46 | 6.0 | 14.0 | 0.00 | 0.00 | 0.00 | 70 | 1011.5 |
| 20260507171207 | 55 | 46 | 6.0 | 12.0 | 0.00 | 0.00 | 0.00 | 69 | 1011.5 |
| 20260507170808 | 55 | 46 | 6.0 | 13.0 | 0.00 | 0.00 | 0.00 | 69 | 1011.4 |
| 20260507170608 | 55 | 46 | 6.0 | 13.0 | 0.00 | 0.00 | 0.00 | 68 | 1011.3 |
| 20260507170407 | 56 | 45 | 6.0 | 13.0 | 0.00 | 0.00 | 0.00 | 68 | 1011.3 |
| 20260507170208 | 56 | 46 | 6.0 | 13.0 | 0.00 | 0.00 | 0.00 | 68 | 1011.3 |
| 20260507170008 | 56 | 46 | 6.0 | 13.0 | 0.00 | 0.00 | 0.00 | 67 | 1011.3 |
| 20260507165808 | 56 | 46 | 5.0 | 11.0 | 0.00 | 0.00 | 0.00 | 67 | 1011.4 |
| 20260507165608 | 56 | 46 | 5.0 | 11.0 | 0.00 | 0.00 | 0.00 | 66 | 1011.5 |
| 20260507165408 | 56 | 45 | 5.0 | 11.0 | 0.00 | 0.00 | 0.00 | 65 | 1011.5 |
| 20260507165208 | 56 | 45 | 4.0 | 10.0 | 0.00 | 0.00 | 0.00 | 64 | 1011.4 |
| 20260507164808 | 57 | 46 | 4.0 | 8.0 | 0.00 | 0.00 | 0.00 | 62 | 1011.4 |
| 20260507164608 | 57 | 46 | 4.0 | 8.0 | 0.00 | 0.00 | 0.00 | 61 | 1011.3 |
| 20260507164208 | 57 | 46 | 4.0 | 7.0 | 0.00 | 0.00 | 0.00 | 62 | 1011.4 |
| 20260507164007 | 57 | 46 | 3.0 | 6.0 | 0.00 | 0.00 | 0.00 | 62 | 1011.4 |
| 20260507163807 | 57 | 46 | 3.0 | 6.0 | 0.00 | 0.00 | 0.00 | 62 | 1011.3 |
| 20260507163607 | 57 | 46 | 3.0 | 6.0 | 0.00 | 0.00 | 0.00 | 61 | 1011.3 |
| 20260507163407 | 57 | 45 | 3.0 | 5.0 | 0.00 | 0.00 | 0.00 | 60 | 1011.3 |
| 20260507163207 | 57 | 45 | 4.0 | 5.0 | 0.00 | 0.00 | 0.00 | 62 | 1011.3 |
| 20260507163007 | 57 | 45 | 4.0 | 5.0 | 0.00 | 0.00 | 0.00 | 61 | 1011.3 |
| 20260507162607 | 57 | 45 | 6.0 | 9.0 | 0.00 | 0.00 | 0.00 | 60 | 1011.2 |
| 20260507162407 | 57 | 45 | 6.0 | 13.0 | 0.00 | 0.00 | 0.00 | 60 | 1011.3 |
| 20260507162007 | 57 | 45 | 6.0 | 13.0 | 0.00 | 0.00 | 0.00 | 61 | 1011.2 |
| 20260507161807 | 57 | 45 | 6.0 | 13.0 | 0.00 | 0.00 | 0.00 | 59 | 1011.2 |
| 20260507161608 | 57 | 45 | 6.0 | 13.0 | 0.00 | 0.00 | 0.00 | 59 | 1011.2 |
| 20260507161408 | 57 | 45 | 5.0 | 13.0 | 0.00 | 0.00 | 0.00 | 59 | 1011.1 |
| 20260507161208 | 57 | 45 | 5.0 | 13.0 | 0.00 | 0.00 | 0.00 | 58 | 1011.1 |
| 20260507160808 | 58 | 45 | 4.0 | 11.0 | 0.00 | 0.00 | 0.00 | 59 | 1011.1 |
| 20260507160607 | 58 | 46 | 4.0 | 11.0 | 0.00 | 0.00 | 0.00 | 59 | 1011.0 |
| 20260507160407 | 58 | 45 | 4.0 | 11.0 | 0.00 | 0.00 | 0.00 | 59 | 1011.1 |
| 20260507160207 | 58 | 45 | 4.0 | 11.0 | 0.00 | 0.00 | 0.00 | 59 | 1011.1 |
| 20260507160007 | 58 | 45 | 5.0 | 8.0 | 0.00 | 0.00 | 0.00 | 59 | 1011.0 |
| 20260507155808 | 58 | 45 | 5.0 | 11.0 | 0.00 | 0.00 | 0.00 | 59 | 1011.0 |
| 20260507155608 | 58 | 46 | 5.0 | 11.0 | 0.00 | 0.00 | 0.00 | 59 | 1011.1 |
| 20260507155408 | 58 | 46 | 6.0 | 11.0 | 0.00 | 0.00 | 0.00 | 58 | 1011.1 |
| 20260507155208 | 58 | 46 | 6.0 | 11.0 | 0.00 | 0.00 | 0.00 | 58 | 1011.1 |
| 20260507154808 | 58 | 46 | 6.0 | 11.0 | 0.00 | 0.00 | 0.00 | 57 | 1011.1 |
| 20260507154407 | 58 | 46 | 6.0 | 12.0 | 0.00 | 0.00 | 0.00 | 57 | 1011.1 |
| 20260507154208 | 58 | 45 | 6.0 | 12.0 | 0.00 | 0.00 | 0.00 | 55 | 1011.1 |
| 20260507154009 | 58 | 45 | 6.0 | 12.0 | 0.00 | 0.00 | 0.00 | 55 | 1011.0 |
| 20260507153808 | 58 | 46 | 6.0 | 12.0 | 0.00 | 0.00 | 0.00 | 55 | 1011.0 |
| 20260507153608 | 58 | 46 | 6.0 | 12.0 | 0.00 | 0.00 | 0.00 | 58 | 1011.0 |
| 20260507153408 | 58 | 46 | 5.0 | 12.0 | 0.00 | 0.00 | 0.00 | 57 | 1011.0 |
| 20260507152808 | 58 | 45 | 5.0 | 11.0 | 0.00 | 0.00 | 0.00 | 57 | 1011.0 |
| 20260507152608 | 58 | 46 | 5.0 | 11.0 | 0.00 | 0.00 | 0.00 | 58 | 1011.0 |
| 20260507152408 | 58 | 46 | 5.0 | 11.0 | 0.00 | 0.00 | 0.00 | 57 | 1011.1 |
| 20260507151807 | 58 | 45 | 6.0 | 11.0 | 0.00 | 0.00 | 0.00 | 57 | 1011.0 |
| 20260507151607 | 58 | 45 | 6.0 | 11.0 | 0.00 | 0.00 | 0.00 | 56 | 1011.0 |
| 20260507151407 | 58 | 45 | 6.0 | 11.0 | 0.00 | 0.00 | 0.00 | 56 | 1010.9 |
| 20260507151207 | 58 | 46 | 6.0 | 11.0 | 0.00 | 0.00 | 0.00 | 55 | 1010.9 |
| 20260507151008 | 59 | 46 | 5.0 | 11.0 | 0.00 | 0.00 | 0.00 | 54 | 1010.8 |
| 20260507150807 | 59 | 46 | 5.0 | 11.0 | 0.00 | 0.00 | 0.00 | 53 | 1010.9 |
| 20260507150608 | 59 | 45 | 5.0 | 11.0 | 0.00 | 0.00 | 0.00 | 53 | 1010.9 |
| 20260507150407 | 59 | 46 | 6.0 | 11.0 | 0.00 | 0.00 | 0.00 | 53 | 1010.8 |
| 20260507150207 | 59 | 45 | 6.0 | 9.0 | 0.00 | 0.00 | 0.00 | 53 | 1010.8 |
| 20260507150007 | 59 | 45 | 7.0 | 10.0 | 0.00 | 0.00 | 0.00 | 54 | 1010.9 |
| 20260507145808 | 59 | 46 | 8.0 | 10.0 | 0.00 | 0.00 | 0.00 | 56 | 1010.9 |
| 20260507145608 | 58 | 45 | 8.0 | 14.0 | 0.00 | 0.00 | 0.00 | 55 | 1010.9 |
| 20260507145208 | 58 | 45 | 8.0 | 14.0 | 0.00 | 0.00 | 0.00 | 54 | 1010.9 |
| 20260507145008 | 59 | 45 | 8.0 | 14.0 | 0.00 | 0.00 | 0.00 | 53 | 1010.9 |
| 20260507144808 | 59 | 45 | 7.0 | 15.0 | 0.00 | 0.00 | 0.00 | 54 | 1010.9 |
| 20260507144608 | 59 | 45 | 7.0 | 15.0 | 0.00 | 0.00 | 0.00 | 54 | 1011.0 |
| 20260507144408 | 59 | 46 | 6.0 | 15.0 | 0.00 | 0.00 | 0.00 | 54 | 1011.2 |
| 20260507144208 | 59 | 46 | 5.0 | 15.0 | 0.00 | 0.00 | 0.00 | 53 | 1011.1 |
| 20260507144007 | 60 | 46 | 5.0 | 15.0 | 0.00 | 0.00 | 0.00 | 51 | 1011.1 |
| 20260507143807 | 60 | 46 | 6.0 | 13.0 | 0.00 | 0.00 | 0.00 | 54 | 1011.0 |
| 20260507143607 | 59 | 45 | 6.0 | 13.0 | 0.00 | 0.00 | 0.00 | 54 | 1010.9 |
| 20260507143208 | 59 | 45 | 6.0 | 11.0 | 0.00 | 0.00 | 0.00 | 56 | 1011.2 |
| 20260507143008 | 59 | 46 | 6.0 | 11.0 | 0.00 | 0.00 | 0.00 | 54 | 1011.1 |
| 20260507142808 | 58 | 46 | 6.0 | 11.0 | 0.00 | 0.00 | 0.00 | 56 | 1011.1 |
| 20260507142608 | 58 | 46 | 6.0 | 11.0 | 0.00 | 0.00 | 0.00 | 56 | 1011.1 |
| 20260507142408 | 58 | 46 | 5.0 | 11.0 | 0.00 | 0.00 | 0.00 | 56 | 1011.2 |